This is the latest recevied weather packets stored in our database for station/object KB9GXK. If no packets are shown the sender has not sent any weather packets the latest 1 day(s).
| Time | Temp. | Humidity | Pressure | Rain* | Wind** | Luminosity | Snow |
|---|---|---|---|---|---|---|---|
| 1778057351 | 2.78° C | 78% | 1012.4 hPa | 0 mm | - | 0 W/m² | - |
| 1778057048 | 2.78° C | 77% | 1012.6 hPa | 0 mm | - | 0 W/m² | - |
| 1778056744 | 3.33° C | 76% | 1012.5 hPa | 0 mm | - | 0 W/m² | - |
| 1778056139 | 3.33° C | 75% | 1012.5 hPa | 0 mm | - | 0 W/m² | - |
| 1778055531 | 3.33° C | 75% | 1012.5 hPa | 0 mm | - | 0 W/m² | - |
| 1778055230 | 3.33° C | 74% | 1012.1 hPa | 0 mm | - | 0 W/m² | - |
| 1778053110 | 3.89° C | 71% | 1012 hPa | 0 mm | - | 0 W/m² | - |
| 1778052808 | 3.89° C | 71% | 1012.1 hPa | 0 mm | - | 0 W/m² | - |
| 1778052505 | 4.44° C | 69% | 1012 hPa | 0 mm | - | 0 W/m² | - |
| 1778052202 | 4.44° C | 68% | 1012.1 hPa | 0 mm | - | 0 W/m² | - |
| 1778051900 | 4.44° C | 68% | 1011.8 hPa | 0 mm | - | 0 W/m² | - |
| 1778051598 | 5° C | 68% | 1012 hPa | 0 mm | - | 0 W/m² | - |
| 1778050689 | 5° C | 67% | 1012 hPa | 0 mm | - | 0 W/m² | - |
| 1778050386 | 5° C | 67% | 1012.1 hPa | 0 mm | - | 0 W/m² | - |
| 1778049778 | 5.56° C | 66% | 1012.3 hPa | 0 mm | - | 0 W/m² | - |
| 1778049173 | 5.56° C | 65% | 1012.3 hPa | 0 mm | - | 0 W/m² | - |
| 1778048264 | 6.67° C | 63% | 1011.9 hPa | 0 mm | - | 0 W/m² | - |
| 1778047660 | 6.67° C | 63% | 1012 hPa | 0 mm | - | 0 W/m² | - |
| 1778047054 | 6.67° C | 62% | 1012.1 hPa | 0 mm | - | 0 W/m² | - |
| 1778046448 | 7.22° C | 61% | 1012.1 hPa | 0 mm | - | 0 W/m² | - |
| 1778046144 | 7.78° C | 60% | 1012.4 hPa | 0 mm | - | 0 W/m² | - |
| 1778045841 | 7.78° C | 58% | 1012 hPa | 0 mm | - | 0 W/m² | - |
| 1778045540 | 7.78° C | 57% | 1012.1 hPa | 0 mm | - | 0 W/m² | - |
| 1778044936 | 8.33° C | 55% | 1012 hPa | 0 mm | - | 0 W/m² | - |
| 1778044633 | 8.33° C | 55% | 1012 hPa | 0 mm | - | 0 W/m² | - |
* Rain latest hour (hover to see other rain measurements)
** Current wind speed in m/s (hover to see current wind gust speed)